Location: La Fredeussais
(48.1780°N, 1.3980°W)
Time: 20:12:03
(UTC+00:00)

PRISM - Pass Details

Date: 01 November 2021
Orbit: 561 x 584 km, 98.2° (Epoch: 03 December)

Event Time Altitude Azimuth Distance (km) Brightness Sun altitude
Rises 03:56:48 0° 16° (NNE) 2,793 ? -29.4°
Reaches altitude 10° 03:59:00 10° 20° (NNE) 1,886 ? -29.0°
Enters shadow 04:00:53 26° 28° (NNE) 1,143 ? -28.7°
